This is the latest recevied weather packets stored in our database for station/object NG7M. If no packets are shown the sender has not sent any weather packets the latest 10 day(s).
| Time | Temp. | Humidity | Pressure | Rain* | Wind** | Luminosity | Snow |
|---|---|---|---|---|---|---|---|
| 1777454403 | 5° C | 52% | 1019 hPa | 0 mm | - | - | - |
| 1777447804 | 6.67° C | 47% | 1019.9 hPa | 0 mm | - | - | - |
| 1777447504 | 6.67° C | 47% | 1019.9 hPa | 0 mm | - | - | - |
| 1777445703 | 6.67° C | 52% | 1020 hPa | 0 mm | - | - | - |
| 1777443905 | 6.67° C | 55% | 1020.1 hPa | 0 mm | - | - | - |
| 1777441503 | 7.22° C | 53% | 1020.1 hPa | 0 mm | - | - | - |
| 1777440604 | 7.78° C | 50% | 1020 hPa | 0 mm | - | - | - |
| 1777438204 | 8.89° C | 43% | 1019.8 hPa | 0 mm | - | - | - |
| 1777437303 | 8.89° C | 41% | 1019.8 hPa | 0 mm | - | - | - |
| 1777434303 | 10° C | 36% | 1019.5 hPa | 0 mm | - | - | - |
| 1777432504 | 11.11° C | 34% | 1019.4 hPa | 0 mm | - | - | - |
| 1777430404 | 11.67° C | 33% | 1018.9 hPa | 0 mm | - | - | - |
| 1777430104 | 11.67° C | 33% | 1018.9 hPa | 0 mm | - | - | - |
| 1777429804 | 12.22° C | 32% | 1018.7 hPa | 0 mm | - | - | - |
| 1777428904 | 12.78° C | 30% | 1018.9 hPa | 0 mm | - | - | - |
| 1777427404 | 14.44° C | 22% | 1018.9 hPa | 0 mm | - | - | - |
| 1777423804 | 13.89° C | 27% | 1019.2 hPa | 0 mm | - | - | - |
| 1777419904 | 13.89° C | 28% | 1019.3 hPa | 0 mm | - | - | - |
| 1777419004 | 13.89° C | 29% | 1019.4 hPa | 0 mm | - | - | - |
| 1777418704 | 13.89° C | 30% | 1019.4 hPa | 0 mm | - | - | - |
| 1777415703 | 14.44° C | 27% | 1019.8 hPa | 0 mm | - | - | - |
| 1777412703 | 13.89° C | 28% | 1019.7 hPa | 0 mm | - | - | - |
| 1777410903 | 13.33° C | 27% | 1020 hPa | 0 mm | - | - | - |
| 1777410004 | 13.33° C | 28% | 1020 hPa | 0 mm | - | - | - |
| 1777408203 | 13.33° C | 30% | 1020 hPa | 0 mm | - | - | - |
* Rain latest hour (hover to see other rain measurements)
** Current wind speed in m/s (hover to see current wind gust speed)